Starlink 11149

operational
NORAD ID: 60041 Int'l Des: 2024-112 Owner: SPXS Country: US Constellation: starlink
LEOCIRCULAR

About Starlink 11149

Description loading...

Live Position

Loading 3D Globe...

Upcoming Passes

Altitude History

Altitude vs Time

uPlot chart will show altitude changes over time

Two-Line Element Set

1 60041U 24112D 25308.61002888 .00000207 00000-0 65752-5 0 9991
2 60041 53.1564 163.0270 0001675 100.3427 259.7780 15.69700323 81331
Epoch: Nov 4, 2025 • Age: 9 hours

Current Status

Altitude 377.7 km
Velocity 7.68 km/s
Sub-Earth Point -49.32°S, 6.69°E
Launch Date Jun 8, 2024
Age 1.4 years
Type internet

Technical Details

Classification Payload
Mass 960.00 kg
Dry Mass 910.00 kg
Total Mass 960.00 kg
Length 0.30 m
Diameter 4.10 m
Span 29.00 m
Shape Box + pan
Manufacturer SPXS
Bus Type Starlink V2MD
Phase Status In Orbit
Owner/State SPXS/US

Large Constellations

Loading constellations...